{"data":{"norad_id":55631,"epoch":"2026-09-20T22:00:03.000096Z","epoch_age_seconds":67082,"freshness":"FRESH","line1":"1 55631U 23021D   26263.91670139  .00081815  00000+0  55837-2 0  9995","line2":"2 55631  70.0016  72.0577 0002476 294.2405 132.2357 15.05734616  5768","mean_motion":15.05734616,"eccentricity":0.0002476,"inclination_deg":70.0016,"raan_deg":72.0577,"arg_perigee_deg":294.2405,"mean_anomaly_deg":132.2357,"bstar":0.0055837,"rev_number":576,"period_min":95.63438236051,"perigee_km":547.53639358181,"apogee_km":550.96683642396,"semimajor_km":6927.3886150029,"source":"CELESTRAK","updated_at":"2026-09-21T09:00:33.279571Z"}}